星链-11544 (STARLINK-11544)

导读 | 星芒AI

STARLINK-11544 是 SpaceX 星链计划中的一颗低轨通信卫星,属于第 5 批星链卫星(V1.0 版本)。该卫星于 2020 年 11 月 11 日由猎鹰 9 号火箭从卡纳维拉尔角发射升空,主要用于提供全球宽带互联网服务。它运行在约 550 公里的太阳同步轨道上,具备先进的推进系统和激光通信能力,以支持高速、低延迟的网络连接。作为星链星座的一部分,STARLINK-11544 有助于扩大 SpaceX 在全球卫星互联网市场的覆盖与服务能力。

基本信息
目录编号:
62984
目录名称:
STARLINK-11544
国际标识:
2025-031D
轨道中心:
EARTH
卫星名称:
星链-11544
卫星全名:
星链-11544 (STARLINK-11544)
卫星状态:
在轨 (已飞行265 天)
发射日期:
2025-02-11 UTC
国别 :
美国 (US)
星等 :
--
轨道信息
数据来源 国际轨道数据
星历时间: 2025-11-02T08:12:40+0800
1天前
查看轨道信息
半长轴: 6734.424km
偏心率: 0.0000745
轨道倾角: 43.000°
近地点辐角 320.777°
升交点赤经 50.888°
平近点角 39.304°
近地点: 355.787km
远地点: 356.791km
周期: 91.666分钟
每日圈数: 15.709128
详细信息
固有亮度:
5
最大亮度:
2.5
卫星平台:
Starlink V1.0
覆盖范围:
全球
运营商:
太空探索技术公司
运营商所在国:
美国
制造商(研发单位):
太空探索技术公司
制造商所在国:
美国
使用方式:
暂无
卫星简介
Starlink 计划是 SpaceX 推出的全球卫星互联网项目,通过发射低轨道卫星,为全球尤其是偏远地区提供高速、低延迟的互联网服务。自 2019 年起,Starlink 已部署数千颗卫星,旨在缩小全球数字鸿沟,推动互联网普及。该项目还为军事、航空等行业提供通信支持,带来广泛经济效益。
2D轨道图
3D轨道图
轨道高度分析图
轨道倾角分析图
轨道综合分析图
查看轨道综合分析图